Погода в Змеиногорске

Погода в Змеиногорске : погода сейчас, прогноз погоды и архив. Всё, что Вы хотите узнать о погоде в Змеиногорске!

Хотите узнать прогноз погоды в Змеиногорске? Тогда Вам сюда: Погода в Змеиногорске

Поиск расширенной информации на нашем сайте:

Другие новости

Новости СМИ2

Главная страница сайта

Новости сайта

03.07.2017

Напоминаем, что на нашем специализированном сайте Метеоцентр.Азия вы можете получить высокодетализированные автоматические прогнозы погоды по пунктам России, СНГ и мира в авиационном формате (включающие направление и скорость ветра, видимость, явления погоды, количество и форму облачности, нижнюю и верхнюю границу облачности).


Погода в Змеиногорске - сегодня

Время (UTC), дата Ветер
(°,м/с) 
Видим.   Явления Облачность Т
(°С)
Тd
(°С)
f(%) Тe
(°С)
Pmin
(гПа)
dP
(гПа)
Po
(мм)
O2
(г/м3)
Тmin Tmax R s Состояние
почвы
21 15.06.18 тихо ()   20000 м    10/0 верхняя 
[Ci]
+7.7 +6.2 90 +8  1012.3  -0.5  727  284           
00 16.06.18 тихо ()   20000 м    10/0 средняя, верхняя 
[Ac As|Cs]
+8.9 +6.8 87 +9  1012.6  0.5  728  283  +7.5        сухая 
03 16.06.18 140 (ЮВ) 20000 м    10/0 средняя, верхняя 
[Ac As|Cs]
+21.9 +10.8 49 +25  1010.7  728  269           
06 16.06.18 190 (Ю) 20000 м    10/0 верхняя 
[Cs]
+25.5 +6.8 30 +26  1009.9  -0.4  727  267           
09 16.06.18 210 (ЮЗ) 20000 м    10/4 600 м верхняя 
[Cu med, cong|Cs]
+26.4 +7 29 +26  1008.8  -0.9  727  266           
12 16.06.18 270 (З) 20000 м    10/4 600 м верхняя 
[Cu med, cong|Cs]
+24.8 +8.7 36 +25  1009.7  0.7  727  267    +26.8       
15 16.06.18 150 (ЮВ) 20000 м    10/6 600 м верхняя 
[Sc|Cs]
+19.6 +10.4 55 +23  1011.2  0.8  728  272           
18 16.06.18 010 (С) 20000 м    10/3 600 м верхняя 
[Sc|Cs]
+13.1 +10 81 +16  1011.9  -0.3  728  278           
21 16.06.18 030 (СВ) 20000 м    10/0 верхняя 
[Cs]
+10.6 +8.3 86 +12  1010.8  -1.4  727  280           
00 17.06.18 170 (Ю) 20000 м    10/0 верхняя 
[Cs]
+18.5 +8.4 52 +19  1008.9  -0.7  726  273  +9.9        влажная 
03 17.06.18 170 (Ю) 20000 м    10/0 верхняя 
[Cs]
+25.1 +9 36 +26  1007.2  -0.8  725  266           
06 17.06.18 190 (Ю) 20000 м    10/0 верхняя 
[Cs]
+28.9 +7.8 27 +29  1005.4  -1.2  725  263           
09 17.06.18 200 (Ю) 20000 м    10/0 верхняя 
[Cs]
+30.4 +6 22 +30  1003.6  -1.6  723  261           
12 17.06.18 340 (С) 20000 м    10/0 верхняя 
[Cs]
+30.1 +6.9 23 +30  1002.2  -1.3  722  261    +31.3       
15 17.06.18 тихо ()   20000 м    10/0 верхняя 
[Cs]
+20.5 +14.2 67 +29  1003  -0.4  722  268           
18 17.06.18 тихо ()   20000 м    ясно 
+13.7 +10.7 82 +17  1003  -1  721  275           
21 17.06.18 020 (С) 20000 м    10/0 верхняя 
[Cs]
+10.5 +8.7 89 +12  1002.1  -1.3  720  278           
00 18.06.18 тихо ()   20000 м    10/0 верхняя 
[Cs]
+12.2 +9.1 81 +13  1001.5  -0.3  720  276  +9.5        сухая 
03 18.06.18 160 (Ю) 20000 м    10/0 верхняя 
[Cs]
+26.2 +10.6 38 +29  999.2  -0.4  720  263           
06 18.06.18 180 (Ю) 20000 м    10/0 верхняя 
[Cs]
+29.7 +10.2 30 +32  998.4  -0.3  720  260           
09 18.06.18 160 (Ю) 20000 м    10/3 600 м верхняя 
[Cu med, cong|Cs]
+31.4 +8.5 24 +31  997.3  -0.8  719  258           
12 18.06.18 170 (Ю) 20000 м    10/4 600 м средняя, верхняя 
[Sc diur, vesp|Ac As|Cs]
+31.2 +8.5 24 +31  996.4  -0.9  718  258    +32       
18 18.06.18 100 (В) 20000 м  {гроза, ливн. осадки}  10/6 600 м кучево-дожд., верхняя 
[Cb cap|Cs]
+16.1 +13.6 85 +24  1001.1  0.8  720  271           
21 18.06.18 090 (В) 20000 м    10/0 верхняя 
[Cs]
+13.2 +11.7 91 +18  1000.3  -1.2  719  274           
00 19.06.18 170 (Ю) 20000 м    10/0 верхняя 
[Cs]
+19.7 +12.2 62 +26  997.9  -1.4  718  268  +12.3      влажная 
Время (UTC), дата Ветер
(°,м/с) 
Видим.   Явления Облачность Т
(°С)
Тd
(°С)
f(%) Тe
(°С)
Pmin
(гПа)
dP
(гПа)
Po
(мм)
O2
(г/м3)
Тmin Tmax R s Состояние
почвы

Для получения пояснительной информации подведите курсор к названию столбца.

ПОГОДА в Змеиногорске - архив

Всё, что Вы хотите узнать о погоде в Змеиногорске - удобно и подробно!

Выберите нужную дату (начиная с 1 января 2015* года) и нажмите кнопку "Найти".
Будут отображены архивные сводки погоды по пункту Змеиногорск, начиная с указанной даты.


Отображать данные в формате CSV (для использования в таблицах Excel)


Внимание! Наш архив погоды предназначен исключительно для личного некоммерческого использования в познавательных целях. Если Вам необходимы официальные справки о состоянии погоды (для производственных, юридических, коммерческих и т.п. целей), обращайтесь в органы Росгидромета.

*Примечание: данная дата относится к архиву по метеостанциям СССР (Россия, СНГ, Балтия).
Архив по метеостанциям Зарубежной Европы и Азии (кроме Китая) хранится 10 дней, по другим регионам земного шара (Китай, Африка, Америка, Австралия, Океания) - 1 день.

Змеиногорск - район местоположения метеостанции


Название, широта, долгота, высота метеостанции:
Змеиногорск 51.2°ш. 82.2°д. 355 м над ур. моря [Российская Федерация]

Дополнительная информация

В oтличие oт бoльшинства пoгoдных сайтoв мы публикуем пoдрoбную метеoинфoрмацию в детальнoм прoфессиoнальнoм фoрмате.

Характеристики температуры и влажнoсти вoздуха измеряются на высoте 2 м в тени вдали oт зданий и деревьев.
Скoрoсть ветра измеряется на высoте 10 м (на урoвне рoста челoвека скoрoсть ветра ниже в 1.5-2 раза). Если метеoстанция нахoдится в гoрoде или в лесу, тo скoрoсть ветра занижена на 2-4 м/с пo сравнению с oткрытым местoм. Скoрoсть ветра над акватoриями крупных рек и oзёр, а также на вершинах хoлмoв на 2-5 м/с выше, чем в oбычных услoвиях.
Атмoсфернoе давление в разных тoчках местнoсти мoжет значительнo oтличаться oт давления на метеoстанции, в зависимoсти oт услoвий рельефа (при пoдъёме на 10 м давление пoнижается примернo на 1 мм рт.ст.).